Regional Weather Roundup
Issued by NWS

Home | Current Version | Previous Version | Text Only | Print | Product List | Glossary Off
Versions: 1 2 3 4 5 6 7 8 9 10 11 12 13 14 15 16 17 18 19 20 21 22 23 24 25 26 27 28 29 30 31 32 33 34 35 36 37 38 39 40 41 42 43 44 45 46 47 48 49 50

000
ASUS45 KTFX 261504
RWRMT
MONTANA HOURLY WEATHER ROUNDUP
NATIONAL WEATHER SERVICE GREAT FALLS MT
904 AM MDT THU MAR 26 2015

NOTE: "FAIR" INDICATES FEW OR NO CLOUDS BELOW 12000 FEET WITH NO
SIGNIFICANT WEATHER AND/OR OBSTRUCTIONS TO VISIBILITY.

* THESE STATIONS ARE NOT UNDER NWS QUALITY CONTROL. THEY DO NOT
   REPORT WEATHER SUCH AS PRECIPITATION OR FOG.

MTZ001>007-043-261600-
WEST OF THE DIVIDE
CITY           SKY/WX    TMP DP  RH WIND       PRES   REMARKS
KALISPELL      LGT RAIN  39  39 100 CALM      30.28S VSB 1
MISSOULA       CLOUDY    39  37  93 W3        30.34R
BUTTE          CLOUDY    39  30  70 N3        30.30S
MULLAN PASS    LGT RAIN  34  34 100 SW12      30.30R VSB M1/4 WCI  25
* ESSEX        N/A       37  36  96 SE2        N/A
* LINCOLN      N/A       38  37  96 SW3G12     N/A
* LOOKOUT PASS N/A       39  39 100 NE3        N/A
* POLSON       N/A       42  41  96 SE1        N/A
* SEELEY LAKE  N/A       35  34  96 N/A        N/A
* THOMP F APT  PTCLDY    28  20  72 NE3        N/A
$$

MTZ008-052>055-261600-
SOUTHWEST MONTANA
CITY           SKY/WX    TMP DP  RH WIND       PRES   REMARKS
BOZEMAN        CLOUDY    43  36  76 CALM      30.27S
DILLON         CLOUDY    45  30  56 SW21      30.30S
* W YELLOWSTON SUNNY     30  27  89 SW4        N/A
* BOULDER HILL N/A       40  29  65 S4         N/A
* HOMESTAKE PS N/A       38  29  70 NW8G23     N/A   WCI  32
* MONIDA PASS  N/A       30  23  75 SE8        N/A   WCI  22
* RAYNOLDS PAS N/A       28   9  45 SE18       N/A   WCI  15
* WHITEHALL    N/A       46  29  52 W14G21     N/A
* WISE RIVER   N/A       40  32  73 W12G19     N/A   WCI  33
$$

MTZ009>010-012-014-046-048-049-054-261600-
EAST SLOPES AND CENTRAL MONTANA
CITY           SKY/WX    TMP DP  RH WIND       PRES   REMARKS
CUT BANK       CLOUDY    45  34  65 W13       30.09R
GREAT FALLS    PTSUNNY   46  34  63 SW18      30.12S
HELENA         CLOUDY    48  36  63 W15G23    30.24S
MALMSTROM AFB  PTSUNNY   48  34  59 SW22G29   30.13S
* DEARBORN     N/A       49  34  56 SW9G15     N/A
* EAST GLACIER N/A       42  33  71 W26G33     N/A
* MONARCH      N/A       42  28  58 SW18G26    N/A
* PENDROY      N/A       49  30  48 NW11G18    N/A
* ROGERS PASS  N/A       36  34  92 SE22G34    N/A   WCI  25
* SWEET GRASS  N/A       44  33  65 NW9        N/A
$$

MTZ011-013-016-021-035-040-045-047-050-051-261600-
NORTH CENTRAL MONTANA
CITY           SKY/WX    TMP DP  RH WIND       PRES   REMARKS
HAVRE          PTCLDY    41  34  76 W7        30.10R
LEWISTOWN      PTCLDY    46  34  63 W5        30.13S
* N BAR RANCH  SUNNY     48  30  50 NW15G22   30.12R
* DENTON       N/A       49  32  52 W15G20     N/A
* GEYSER       N/A       48  30  50 W19G26     N/A
* JUDITH GAP   N/A       45  32  60 W15        N/A
* LOMA         N/A       46  33  61 SW11G16    N/A
$$

MTZ017>020-022>027-061-062-261600-
NORTHEAST MONTANA
CITY           SKY/WX    TMP DP  RH WIND       PRES   REMARKS
GLASGOW        CLOUDY    34  30  85 SE10      30.12R WCI  26
GLENDIVE       CLOUDY    34  30  85 CALM      30.14R
JORDAN         CLOUDY    39  30  70 CALM      30.11R
SIDNEY         CLOUDY    34  28  79 N6        30.17R WCI  29
WOLF POINT     FOG       34  32  92 E7        30.16R WCI  28
* BEAVER HILL  N/A       34  31  89 SE11       N/A   WCI  26
* LINDSAY DVD  N/A       31  31 100 E6         N/A   WCI  25
* NAVAJO       N/A       30  29  96 E3         N/A
* SACO         N/A       32  28  85 E2         N/A
$$

MTZ028>042-056>058-261600-
SOUTHCENTRAL AND SOUTHEAST MONTANA
CITY           SKY/WX    TMP DP  RH WIND       PRES   REMARKS
BAKER          CLOUDY    34  30  85 E10       30.11R WCI  26
BILLINGS       CLOUDY    48  34  59 S6        30.15S
LIVINGSTON     CLOUDY    46  28  50 W18G29    30.20R
MILES CITY     CLOUDY   N/A N/A N/A N/A       30.12R
* ALZADA       N/A       44  29  56 W10G15     N/A
* HYSHAM       N/A       45  27  49 W4         N/A
* LAME DEER    N/A       42  28  58 W8G14      N/A
* REED POINT   N/A       50  29  44 W16        N/A
* ROSCOE HILL  N/A       47  16  29 W3G9       N/A
$$

REGIONAL REPORTS...DAKOTAS
CITY           SKY/WX    TMP DP  RH WIND       PRES   REMARKS
WILLISTON      PTSUNNY   32  28  85 SE6       30.18R WCI  26
DICKINSON      LGT SNOW  28  25  89 NE8       30.11R WCI  20
CROSBY         CLOUDY    32  32 100 E7        30.20R WCI  25
WATFORD CITY   CLOUDY    30  27  89 SE6       30.15R WCI  24
BISMARCK       PTSUNNY   30  25  82 E9        30.20R WCI  22
GRAND FORKS    SUNNY     27  18  69 N10       30.27R WCI  18
FARGO          CLOUDY    27  18  69 N17       30.24R WCI  14
BUFFALO SD     CLOUDY    34  27  76 NE14      30.03R WCI  24
RAPID CITY     CLOUDY    50  28  43 NW22G36   30.05F
$$

REGIONAL REPORTS...WYOMING/IDAHO/WASHINGTON
CITY           SKY/WX    TMP DP  RH WIND       PRES   REMARKS
GILLETTE       CLOUDY    41  34  76 NW13      30.14F
SHERIDAN       CLOUDY    45  34  65 NW7       30.17S
CODY           CLOUDY    46  25  44 W13G26    30.17F
YELLOWSTONE LA PTSUNNY   27  25  92 E3        30.36S
SALMON         CLOUDY    43  32  65 CALM      30.37R
MULLAN PASS    LGT RAIN  34  34 100 SW12      30.30S VSB M1/4 WCI  25
SAND POINT     CLOUDY    46  46 100 W6        30.30S
SPOKANE        PTSUNNY   46  43  89 S9        30.30S

$$



USA.gov is the U.S. government's official web portal to all federal, state and local government web resources and services.